Darstellungsparameter: Aktuell verwendete Einstellungen:
Skalierung der Graphiken ... ?
xyx+y,   Skalierungsfaktor:      Skalierung: Modus: x, Faktor: 1
Darstellungszeitraum ... ?
Vom - - bis: - -   Zeitraum: 14.05.2009 - 18.05.2009
Min/Max/Avg-Anzeige ... ?
Zeige MMA aktuell
Zeige MMA Monat
Zeige MMA alles
Zeige --A aktuell
Zeige --A Monat
Zeige --A alles
Keine MMA-Anzeige
MMA:
Keine MMA-Graphiken
MMA-Basis: 14.05.2009 - 18.05.2009
Quicknavigation für Darstellung... ?
Tage:      1T, 2T, 3T, 5T -1T -2T -3T -5T +1T +2T +3T +5T
Wochen: 1W, 2W, 3W -1W -2W -3W +1W +2W +3W
Monate: 1M, 3M, 6M -1M -3M -6M +1M +3M +6M
Jahre:    1J, 3J, 5J, 10J -1J -3J -5J -10J +1J +3J +5J +10J
Nutze für die Darstellung ... ?
Originaldaten oder Mittelwerte auf ...
Stundenbasis Tagesbasis Wochenbasis
Monatsbasis Jahresbasis      Datenbasis: Original-Daten
Darstellen als:
Statistik (Auto) Statistik J:M      Darstellung:
Zur Graphik,    zurück zur Übersicht aller Sensoren.
 
Tabellarische Datenbersicht: ?
 
Sensor: Nr:Datum:Temp:Abs-Feuchte:Windchill:Wind:
Aussen-T/F 1 14-05-2009 00:11:35 14 C 10.01 g/m*3 14 C 0 km/h
2 14-05-2009 00:26:35 14 C 10.01 g/m*3 14 C 0 km/h
3 14-05-2009 00:41:35 13.8 C 9.89 g/m*3 13.8 C 0 km/h
4 14-05-2009 00:56:35 13.8 C 9.89 g/m*3 13.8 C 0 km/h
5 14-05-2009 01:11:35 13.7 C 9.83 g/m*3 13.7 C 0 km/h
6 14-05-2009 01:26:35 13.5 C 9.71 g/m*3 13.5 C 0 km/h
7 14-05-2009 01:41:35 13.4 C 9.65 g/m*3 13.4 C 0 km/h
8 14-05-2009 01:56:35 13.2 C 9.53 g/m*3 13.2 C 0 km/h
9 14-05-2009 02:11:35 13.1 C 9.59 g/m*3 13.1 C 0 km/h
10 14-05-2009 02:26:35 13 C 9.53 g/m*3 13 C 0 km/h
11 14-05-2009 02:41:35 12.9 C 9.58 g/m*3 12.9 C 0 km/h
12 14-05-2009 02:56:35 13 C 9.53 g/m*3 13 C 0 km/h
13 14-05-2009 03:11:35 13.3 C 9.7 g/m*3 13.3 C 0 km/h
14 14-05-2009 03:26:35 13.4 C 9.65 g/m*3 13.4 C 0 km/h
15 14-05-2009 03:41:35 13.2 C 9.42 g/m*3 13.2 C 0 km/h
16 14-05-2009 03:56:35 13.1 C 9.36 g/m*3 13.1 C 0 km/h
17 14-05-2009 04:11:35 13.1 C 9.13 g/m*3 13.1 C 0 km/h
18 14-05-2009 04:26:35 13.2 C 8.84 g/m*3 13.2 C 0 km/h
19 14-05-2009 04:41:35 13.4 C 8.6 g/m*3 13.4 C 0 km/h
20 14-05-2009 04:56:36 13.4 C 8.49 g/m*3 13.4 C 0 km/h
21 14-05-2009 05:11:36 13.5 C 8.66 g/m*3 13.5 C 0 km/h
22 14-05-2009 05:26:36 13.5 C 8.54 g/m*3 13.5 C 0 km/h
23 14-05-2009 05:41:36 13.4 C 8.72 g/m*3 13.4 C 0 km/h
24 14-05-2009 05:56:36 13.3 C 8.66 g/m*3 13.3 C 0 km/h
25 14-05-2009 06:11:36 13.2 C 8.73 g/m*3 13.2 C 0 km/h
Sensor: Nr:Datum:Temp:Abs-Feuchte:Windchill:Wind:
Aussen-T/F 26 14-05-2009 06:26:36 13.3 C 8.66 g/m*3 13.3 C 0 km/h
27 14-05-2009 06:41:36 13.4 C 8.6 g/m*3 13.4 C 0 km/h
28 14-05-2009 06:56:36 13.6 C 8.36 g/m*3 13.6 C 0 km/h
29 14-05-2009 07:11:36 13.7 C 8.64 g/m*3 13.7 C 0 km/h
30 14-05-2009 07:26:36 13.8 C 8.82 g/m*3 13.8 C 0 km/h
31 14-05-2009 07:41:36 13.8 C 8.82 g/m*3 13.8 C 0 km/h
32 14-05-2009 07:56:36 13.7 C 8.76 g/m*3 13.7 C 0 km/h
33 14-05-2009 08:11:36 13.7 C 8.76 g/m*3 13.7 C 0 km/h
34 14-05-2009 08:26:36 13.9 C 8.75 g/m*3 13.9 C 0 km/h
35 14-05-2009 08:41:36 14.4 C 8.53 g/m*3 14.4 C 0 km/h
36 14-05-2009 08:56:36 14.5 C 8.71 g/m*3 14.5 C 0 km/h
37 14-05-2009 09:11:36 14.7 C 8.81 g/m*3 14.7 C 0 km/h
38 14-05-2009 09:26:36 15 C 8.59 g/m*3 15 C 0 km/h
39 14-05-2009 09:41:37 15.1 C 7.74 g/m*3 15.1 C 0 km/h
40 14-05-2009 09:56:37 15.5 C 8.06 g/m*3 15.5 C 0 km/h
41 14-05-2009 10:11:37 15.5 C 8.06 g/m*3 15.5 C 0 km/h
42 14-05-2009 10:26:37 15.5 C 8.46 g/m*3 15.5 C 0 km/h
43 14-05-2009 10:41:37 15.6 C 8.11 g/m*3 15.6 C 0 km/h
44 14-05-2009 10:56:37 15.6 C 7.98 g/m*3 15.6 C 0 km/h
45 14-05-2009 11:11:37 15.8 C 7.94 g/m*3 15.8 C 0 km/h
46 14-05-2009 11:26:37 16.3 C 8.19 g/m*3 16.3 C 0 km/h
47 14-05-2009 11:41:37 16.9 C 8.2 g/m*3 16.9 C 0 km/h
48 14-05-2009 11:56:37 17.2 C 8.2 g/m*3 17.2 C 0 km/h
49 14-05-2009 12:11:37 17 C 8.39 g/m*3 17 C 0 km/h
50 14-05-2009 12:26:37 17 C 8.54 g/m*3 17 C 0 km/h
Sensor: Nr:Datum:Temp:Abs-Feuchte:Windchill:Wind:
Aussen-T/F 51 14-05-2009 12:41:37 17.4 C 8.45 g/m*3 17.4 C 0 km/h
52 14-05-2009 12:56:37 17.5 C 8.8 g/m*3 17.5 C 0 km/h
53 14-05-2009 13:11:37 17.5 C 8.65 g/m*3 17.5 C 0 km/h
54 14-05-2009 13:26:37 17.9 C 8.7 g/m*3 17.9 C 0 km/h
55 14-05-2009 13:41:37 18.4 C 8.65 g/m*3 18.4 C 0 km/h
56 14-05-2009 13:56:37 18.9 C 8.59 g/m*3 18.9 C 0 km/h
57 14-05-2009 14:11:37 19.9 C 8.42 g/m*3 19.9 C 0 km/h
58 14-05-2009 14:26:38 21.1 C 8.29 g/m*3 21.1 C 0 km/h
59 14-05-2009 14:41:38 21.5 C 8.11 g/m*3 21.5 C 0 km/h
60 14-05-2009 14:56:38 22.3 C 7.9 g/m*3 22.3 C 0 km/h
61 14-05-2009 15:11:38 21.2 C 8.34 g/m*3 21.2 C 0 km/h
62 14-05-2009 15:26:38 21.1 C 8.29 g/m*3 21.1 C 0 km/h
63 14-05-2009 15:41:38 22 C 8.54 g/m*3 22 C 0 km/h
64 14-05-2009 15:56:38 24.9 C 8.01 g/m*3 24.9 C 0 km/h
65 14-05-2009 16:11:38 25.4 C 7.53 g/m*3 25.4 C 0 km/h
66 14-05-2009 16:26:38 23 C 7.81 g/m*3 23 C 0 km/h
67 14-05-2009 16:41:38 21.8 C 8.44 g/m*3 21.8 C 0 km/h
68 14-05-2009 16:56:38 20.5 C 8.54 g/m*3 20.5 C 0 km/h
69 14-05-2009 17:11:38 20.2 C 8.57 g/m*3 20.2 C 0 km/h
70 14-05-2009 17:26:38 19.6 C 8.95 g/m*3 19.6 C 0 km/h
71 14-05-2009 17:41:38 19.6 C 8.95 g/m*3 19.6 C 0 km/h
72 14-05-2009 17:56:38 19.3 C 9.29 g/m*3 19.3 C 0 km/h
73 14-05-2009 18:11:38 19.1 C 9.51 g/m*3 19.1 C 0 km/h
74 14-05-2009 18:26:38 19 C 9.13 g/m*3 19 C 0 km/h
75 14-05-2009 18:41:38 18.9 C 9.56 g/m*3 18.9 C 0 km/h
Sensor: Nr:Datum:Temp:Abs-Feuchte:Windchill:Wind:
Aussen-T/F 76 14-05-2009 18:56:38 18.7 C 9.77 g/m*3 18.7 C 0 km/h
77 14-05-2009 19:11:39 18.3 C 9.38 g/m*3 18.3 C 0 km/h
78 14-05-2009 19:26:39 18 C 9.52 g/m*3 18 C 0 km/h
79 14-05-2009 19:41:39 17.4 C 9.93 g/m*3 17.4 C 0 km/h
80 14-05-2009 19:56:39 16.4 C 10.61 g/m*3 16.4 C 0 km/h
81 14-05-2009 20:11:39 16 C 11.04 g/m*3 16 C 0 km/h
82 14-05-2009 20:26:39 15.6 C 11.3 g/m*3 15.6 C 0 km/h
83 14-05-2009 20:41:39 15.6 C 11.44 g/m*3 15.6 C 0 km/h
84 14-05-2009 20:56:39 15.3 C 11.36 g/m*3 15.3 C 0 km/h
85 14-05-2009 21:11:39 15.3 C 11.49 g/m*3 15.3 C 0 km/h
86 14-05-2009 21:26:39 15.1 C 11.35 g/m*3 15.1 C 0 km/h
87 14-05-2009 21:41:39 15 C 11.41 g/m*3 15 C 0 km/h
88 14-05-2009 21:56:39 14.5 C 11.19 g/m*3 14.5 C 0 km/h
89 14-05-2009 22:11:39 14.1 C 10.92 g/m*3 14.1 C 0 km/h
90 14-05-2009 22:26:39 14 C 10.98 g/m*3 14 C 0 km/h
91 14-05-2009 22:41:39 13.6 C 10.83 g/m*3 13.6 C 0 km/h
92 14-05-2009 22:56:39 13.6 C 10.83 g/m*3 13.6 C 0 km/h
93 14-05-2009 23:11:39 13.3 C 10.74 g/m*3 13.3 C 0 km/h
94 14-05-2009 23:26:39 13.2 C 10.68 g/m*3 13.2 C 0 km/h
95 14-05-2009 23:41:39 13.2 C 10.68 g/m*3 13.2 C 0 km/h
96 14-05-2009 23:56:40 13 C 10.55 g/m*3 13 C 0 km/h
97 15-05-2009 00:11:40 12.9 C 10.59 g/m*3 12.9 C 0 km/h
98 15-05-2009 00:26:40 12.9 C 10.59 g/m*3 12.9 C 0 km/h
99 15-05-2009 00:41:40 12.7 C 10.46 g/m*3 12.7 C 0 km/h
100 15-05-2009 00:56:40 12.8 C 10.53 g/m*3 12.8 C 0 km/h
Sensor: Nr:Datum:Temp:Abs-Feuchte:Windchill:Wind:
Aussen-T/F 101 15-05-2009 01:11:40 12.9 C 10.59 g/m*3 12.9 C 0 km/h
102 15-05-2009 01:26:40 13 C 10.43 g/m*3 13 C 0 km/h
103 15-05-2009 01:41:40 13.1 C 10.5 g/m*3 13.1 C 0 km/h
104 15-05-2009 01:56:40 13 C 10.43 g/m*3 13 C 0 km/h
105 15-05-2009 02:11:40 13.1 C 10.38 g/m*3 13.1 C 0 km/h
106 15-05-2009 02:26:40 13.1 C 10.38 g/m*3 13.1 C 0 km/h
107 15-05-2009 02:41:40 13.1 C 10.38 g/m*3 13.1 C 0 km/h
108 15-05-2009 02:56:40 13.1 C 10.38 g/m*3 13.1 C 0 km/h
109 15-05-2009 03:11:40 13.1 C 10.38 g/m*3 13.1 C 0 km/h
110 15-05-2009 03:26:40 13.2 C 10.45 g/m*3 13.2 C 0 km/h
111 15-05-2009 03:41:40 13.3 C 10.51 g/m*3 13.3 C 0 km/h
112 15-05-2009 03:56:40 13.2 C 10.45 g/m*3 13.2 C 0 km/h
113 15-05-2009 04:11:40 13.4 C 10.69 g/m*3 13.4 C 0 km/h
114 15-05-2009 04:26:40 13.4 C 10.58 g/m*3 13.4 C 0 km/h
115 15-05-2009 04:41:41 13.4 C 10.58 g/m*3 13.4 C 0 km/h
116 15-05-2009 04:56:41 13.4 C 10.69 g/m*3 13.4 C 0 km/h
117 15-05-2009 05:11:41 13.5 C 10.76 g/m*3 13.5 C 0 km/h
118 15-05-2009 05:26:41 13.6 C 10.83 g/m*3 13.6 C 0 km/h
119 15-05-2009 05:41:41 13.7 C 10.89 g/m*3 13.7 C 0 km/h
120 15-05-2009 05:56:41 13.8 C 10.96 g/m*3 13.8 C 0 km/h
121 15-05-2009 06:11:41 13.7 C 10.78 g/m*3 13.7 C 0 km/h
122 15-05-2009 06:26:41 13.8 C 10.84 g/m*3 13.8 C 0 km/h
123 15-05-2009 06:41:41 14.1 C 11.04 g/m*3 14.1 C 0 km/h
124 15-05-2009 06:56:41 14.4 C 11.13 g/m*3 14.4 C 0 km/h
125 15-05-2009 07:11:41 14.6 C 11.26 g/m*3 14.6 C 0 km/h
Sensor: Nr:Datum:Temp:Abs-Feuchte:Windchill:Wind:
Aussen-T/F 126 15-05-2009 07:26:41 14.6 C 11.14 g/m*3 14.6 C 0 km/h
127 15-05-2009 07:41:41 14.7 C 11.21 g/m*3 14.7 C 0 km/h
128 15-05-2009 07:56:41 15 C 11.41 g/m*3 15 C 0 km/h
129 15-05-2009 08:11:41 15.8 C 12.11 g/m*3 15.8 C 0 km/h
130 15-05-2009 08:26:41 16.3 C 11.93 g/m*3 16.3 C 0 km/h
131 15-05-2009 08:41:41 16.4 C 11.17 g/m*3 16.4 C 0 km/h
132 15-05-2009 08:56:41 16.5 C 10.67 g/m*3 16.5 C 0 km/h
133 15-05-2009 09:11:41 16.7 C 10.8 g/m*3 16.7 C 0 km/h
134 15-05-2009 09:26:41 16.7 C 10.23 g/m*3 16.7 C 0 km/h
135 15-05-2009 09:41:42 16.8 C 10.29 g/m*3 16.8 C 0 km/h
136 15-05-2009 09:56:02 17.2 C 9.96 g/m*3 17.2 C 0 km/h
137 15-05-2009 10:11:01 17.1 C 9.9 g/m*3 17.1 C 0 km/h
138 15-05-2009 10:26:02 17.9 C 9.77 g/m*3 17.9 C 0 km/h
139 15-05-2009 10:41:02 18.4 C 9.59 g/m*3 18.4 C 0 km/h
140 15-05-2009 10:56:01 18.6 C 9.71 g/m*3 18.6 C 0 km/h
141 15-05-2009 11:11:02 19.3 C 9.29 g/m*3 19.3 C 0 km/h
142 15-05-2009 11:26:02 20.1 C 9.04 g/m*3 20.1 C 0 km/h
143 15-05-2009 11:41:01 20.6 C 9.31 g/m*3 20.6 C 0 km/h
144 15-05-2009 11:56:01 20.6 C 8.95 g/m*3 20.6 C 0 km/h
145 15-05-2009 12:11:01 19.9 C 8.59 g/m*3 19.9 C 0 km/h
146 15-05-2009 12:26:00 20 C 8.64 g/m*3 20 C 0 km/h
147 15-05-2009 12:41:00 20.4 C 8.49 g/m*3 20.4 C 0 km/h
148 15-05-2009 12:56:00 19.2 C 8.9 g/m*3 19.2 C 0 km/h
149 15-05-2009 13:11:00 17.5 C 9.84 g/m*3 17.5 C 0 km/h
150 15-05-2009 13:26:00 17 C 10.42 g/m*3 17 C 0 km/h
Sensor: Nr:Datum:Temp:Abs-Feuchte:Windchill:Wind:
Aussen-T/F 151 15-05-2009 13:41:00 17.5 C 10.59 g/m*3 17.5 C 0 km/h
152 15-05-2009 13:56:59 18.2 C 10.26 g/m*3 18.2 C 0 km/h
153 15-05-2009 14:10:59 17.8 C 9.71 g/m*3 17.8 C 0 km/h
154 15-05-2009 14:26:00 17.9 C 10.08 g/m*3 17.9 C 0 km/h
155 15-05-2009 14:41:59 17.3 C 9.87 g/m*3 17.3 C 0 km/h
156 15-05-2009 14:56:59 16.9 C 9.49 g/m*3 16.9 C 0 km/h
157 15-05-2009 15:11:59 16.5 C 9.97 g/m*3 16.5 C 0 km/h
158 15-05-2009 15:26:59 15.9 C 10.43 g/m*3 15.9 C 0 km/h
159 15-05-2009 15:41:58 16.7 C 11.23 g/m*3 16.7 C 0 km/h
160 15-05-2009 15:56:59 17.6 C 11.4 g/m*3 17.6 C 0 km/h
161 15-05-2009 16:11:59 18.3 C 10.94 g/m*3 18.3 C 0 km/h
162 15-05-2009 16:26:58 18.4 C 10.7 g/m*3 18.4 C 0 km/h
163 15-05-2009 16:41:58 18.2 C 10.72 g/m*3 18.2 C 0 km/h
164 15-05-2009 16:56:58 18.3 C 10.79 g/m*3 18.3 C 0 km/h
165 15-05-2009 17:11:58 18 C 10.75 g/m*3 18 C 0 km/h
166 15-05-2009 17:26:57 16.3 C 9.43 g/m*3 16.3 C 0 km/h
167 15-05-2009 17:41:57 16.4 C 10.05 g/m*3 16.4 C 0 km/h
168 15-05-2009 17:49:57 16.2 C 10.2 g/m*3 16.2 C 0 km/h
169 15-05-2009 18:01:57 15.9 C 10.16 g/m*3 15.9 C 0 km/h
170 15-05-2009 18:13:57 15.7 C 10.17 g/m*3 15.7 C 0 km/h
171 15-05-2009 18:25:57 15.5 C 9.91 g/m*3 15.5 C 0 km/h
172 15-05-2009 18:37:56 15.3 C 9.92 g/m*3 15.3 C 0 km/h
173 15-05-2009 18:49:57 14.5 C 9.33 g/m*3 14.5 C 0 km/h
174 15-05-2009 19:01:56 14.1 C 9.22 g/m*3 14.1 C 0 km/h
175 15-05-2009 19:13:56 13.8 C 9.41 g/m*3 13.8 C 0 km/h
Sensor: Nr:Datum:Temp:Abs-Feuchte:Windchill:Wind:
Aussen-T/F 176 15-05-2009 19:25:56 13.7 C 9.59 g/m*3 13.7 C 0 km/h
177 15-05-2009 19:37:57 13.5 C 9.71 g/m*3 13.5 C 0 km/h
178 15-05-2009 19:49:56 13.5 C 9.83 g/m*3 13.5 C 0 km/h
179 15-05-2009 20:01:56 13.5 C 9.83 g/m*3 13.5 C 0 km/h
180 15-05-2009 20:13:56 13.3 C 9.82 g/m*3 13.3 C 0 km/h
181 15-05-2009 20:25:56 13.2 C 9.76 g/m*3 13.2 C 0 km/h
182 15-05-2009 20:37:56 13.2 C 9.76 g/m*3 13.2 C 0 km/h
183 15-05-2009 20:49:55 13.1 C 9.81 g/m*3 13.1 C 0 km/h
184 15-05-2009 21:01:56 12.8 C 9.74 g/m*3 12.8 C 0 km/h
185 15-05-2009 21:13:56 12.7 C 9.8 g/m*3 12.7 C 0 km/h
186 15-05-2009 21:25:55 12.5 C 9.68 g/m*3 12.5 C 0 km/h
187 15-05-2009 21:37:55 12.5 C 9.78 g/m*3 12.5 C 0 km/h
188 15-05-2009 21:49:55 12.5 C 9.78 g/m*3 12.5 C 0 km/h
189 15-05-2009 22:01:55 12.5 C 9.89 g/m*3 12.5 C 0 km/h
190 15-05-2009 22:13:55 12.5 C 9.89 g/m*3 12.5 C 0 km/h
191 15-05-2009 22:25:55 12.5 C 10 g/m*3 12.5 C 0 km/h
192 15-05-2009 22:37:54 12.5 C 10 g/m*3 12.5 C 0 km/h
193 15-05-2009 22:49:55 12.6 C 10.07 g/m*3 12.6 C 0 km/h
194 15-05-2009 23:01:54 12.6 C 10.07 g/m*3 12.6 C 0 km/h
195 15-05-2009 23:13:54 12.5 C 10 g/m*3 12.5 C 0 km/h
196 15-05-2009 23:25:54 12.4 C 9.94 g/m*3 12.4 C 0 km/h
197 15-05-2009 23:37:54 12.2 C 9.71 g/m*3 12.2 C 0 km/h
198 15-05-2009 23:49:54 12.4 C 9.4 g/m*3 12.4 C 0 km/h
199 16-05-2009 00:01:53 12.4 C 8.96 g/m*3 12.4 C 0 km/h
200 16-05-2009 00:13:53 12.3 C 8.8 g/m*3 12.3 C 0 km/h
Sensor: Nr:Datum:Temp:Abs-Feuchte:Windchill:Wind:
Aussen-T/F 201 16-05-2009 00:25:54 12.3 C 8.9 g/m*3 12.3 C 0 km/h
202 16-05-2009 00:37:53 12.3 C 8.9 g/m*3 12.3 C 0 km/h
203 16-05-2009 00:49:54 12.2 C 8.74 g/m*3 12.2 C 0 km/h
204 16-05-2009 01:01:53 12.1 C 8.58 g/m*3 12.1 C 0 km/h
205 16-05-2009 01:13:53 12 C 8.63 g/m*3 12 C 0 km/h
206 16-05-2009 01:25:53 11.4 C 8.52 g/m*3 11.4 C 0 km/h
207 16-05-2009 01:37:52 11.1 C 8.46 g/m*3 11.1 C 0 km/h
208 16-05-2009 01:49:53 10.8 C 8.3 g/m*3 10.8 C 0 km/h
209 16-05-2009 02:01:53 10.5 C 8.05 g/m*3 10.5 C 0 km/h
210 16-05-2009 02:13:53 10.3 C 8.04 g/m*3 10.3 C 0 km/h
211 16-05-2009 02:25:52 10 C 7.89 g/m*3 10 C 0 km/h
212 16-05-2009 02:37:53 9.7 C 8.02 g/m*3 9.7 C 0 km/h
213 16-05-2009 02:50:53 9.6 C 8.06 g/m*3 9.6 C 0 km/h
214 16-05-2009 03:02:53 9.6 C 8.15 g/m*3 9.6 C 0 km/h
215 16-05-2009 03:14:54 9.4 C 8.05 g/m*3 9.4 C 0 km/h
216 16-05-2009 03:26:54 9.3 C 8 g/m*3 9.3 C 0 km/h
217 16-05-2009 03:38:53 9.3 C 8.09 g/m*3 9.3 C 0 km/h
218 16-05-2009 03:50:53 9.2 C 8.04 g/m*3 9.2 C 0 km/h
219 16-05-2009 04:02:53 9.1 C 7.99 g/m*3 9.1 C 0 km/h
220 16-05-2009 04:14:53 9.1 C 7.99 g/m*3 9.1 C 0 km/h
221 16-05-2009 04:26:53 9.4 C 8.05 g/m*3 9.4 C 0 km/h
222 16-05-2009 04:38:53 9.4 C 7.96 g/m*3 9.4 C 0 km/h
223 16-05-2009 04:50:53 8.9 C 7.8 g/m*3 8.9 C 0 km/h
224 16-05-2009 05:02:52 8.7 C 7.7 g/m*3 8.7 C 0 km/h
225 16-05-2009 05:14:52 8.4 C 7.55 g/m*3 8.4 C 0 km/h
Sensor: Nr:Datum:Temp:Abs-Feuchte:Windchill:Wind:
Aussen-T/F 226 16-05-2009 05:26:52 8.3 C 7.5 g/m*3 8.3 C 0 km/h
227 16-05-2009 05:38:52 8.2 C 7.45 g/m*3 8.2 C 0 km/h
228 16-05-2009 05:50:52 8.1 C 7.41 g/m*3 8.1 C 0 km/h
229 16-05-2009 06:02:52 8 C 7.36 g/m*3 8 C 0 km/h
230 16-05-2009 06:14:51 8 C 7.36 g/m*3 8 C 0 km/h
231 16-05-2009 06:26:51 8 C 7.36 g/m*3 8 C 0 km/h
232 16-05-2009 06:38:52 8.2 C 7.45 g/m*3 8.2 C 0 km/h
233 16-05-2009 06:50:51 8.4 C 7.47 g/m*3 8.4 C 0 km/h
234 16-05-2009 07:02:52 8.6 C 7.48 g/m*3 8.6 C 0 km/h
235 16-05-2009 07:14:51 8.9 C 7.45 g/m*3 8.9 C 0 km/h
236 16-05-2009 07:26:51 8.9 C 7.53 g/m*3 8.9 C 0 km/h
237 16-05-2009 07:38:51 9 C 7.58 g/m*3 9 C 0 km/h
238 16-05-2009 07:50:51 9.2 C 7.59 g/m*3 9.2 C 0 km/h
239 16-05-2009 08:02:51 9.5 C 7.65 g/m*3 9.5 C 0 km/h
240 16-05-2009 08:14:50 9.8 C 7.7 g/m*3 9.8 C 0 km/h
241 16-05-2009 08:26:50 10.7 C 7.37 g/m*3 10.7 C 0 km/h
242 16-05-2009 08:38:50 10.9 C 6.96 g/m*3 10.9 C 0 km/h
243 16-05-2009 08:50:50 10.9 C 7.06 g/m*3 10.9 C 0 km/h
244 16-05-2009 09:02:50 10.9 C 7.06 g/m*3 10.9 C 0 km/h
245 16-05-2009 09:14:50 11.2 C 7.2 g/m*3 11.2 C 0 km/h
246 16-05-2009 09:26:50 11.7 C 7.22 g/m*3 11.7 C 0 km/h
247 16-05-2009 09:38:50 12 C 7.14 g/m*3 12 C 0 km/h
248 16-05-2009 09:50:50 12.6 C 7.19 g/m*3 12.6 C 0 km/h
249 16-05-2009 10:02:49 12.4 C 6.99 g/m*3 12.4 C 0 km/h
250 16-05-2009 10:14:49 12.8 C 6.61 g/m*3 12.8 C 0 km/h
Sensor: Nr:Datum:Temp:Abs-Feuchte:Windchill:Wind:
Aussen-T/F 251 16-05-2009 10:26:49 12.8 C 6.61 g/m*3 12.8 C 0 km/h
252 16-05-2009 10:38:49 13.6 C 6.59 g/m*3 13.6 C 0 km/h
253 16-05-2009 10:50:49 13.8 C 6.2 g/m*3 13.8 C 0 km/h
254 16-05-2009 11:02:48 13.7 C 6.39 g/m*3 13.7 C 0 km/h
255 16-05-2009 11:14:49 13.6 C 6.24 g/m*3 13.6 C 0 km/h
256 16-05-2009 11:26:49 13.6 C 6.24 g/m*3 13.6 C 0 km/h
257 16-05-2009 11:38:49 14.1 C 6.07 g/m*3 14.1 C 0 km/h
258 16-05-2009 11:50:48 14.6 C 6.13 g/m*3 14.6 C 0 km/h
259 16-05-2009 12:02:49 15.8 C 6.19 g/m*3 15.8 C 0 km/h
260 16-05-2009 12:14:48 15.8 C 5.65 g/m*3 15.8 C 0 km/h
261 16-05-2009 12:26:48 16.2 C 5.52 g/m*3 16.2 C 0 km/h
262 16-05-2009 12:38:48 17 C 5.5 g/m*3 17 C 0 km/h
263 16-05-2009 12:50:48 16.7 C 5.12 g/m*3 16.7 C 0 km/h
264 16-05-2009 13:02:48 16.8 C 5.29 g/m*3 16.8 C 0 km/h
265 16-05-2009 13:14:47 16.4 C 5.16 g/m*3 16.4 C 0 km/h
266 16-05-2009 13:26:47 15.8 C 5.52 g/m*3 15.8 C 0 km/h
267 16-05-2009 13:38:47 16.6 C 5.65 g/m*3 16.6 C 0 km/h
268 16-05-2009 13:50:47 17.1 C 5.39 g/m*3 17.1 C 0 km/h
269 16-05-2009 14:02:47 17.7 C 5.43 g/m*3 17.7 C 0 km/h
270 16-05-2009 14:14:47 17.1 C 5.39 g/m*3 17.1 C 0 km/h
271 16-05-2009 14:26:47 17 C 5.5 g/m*3 17 C 0 km/h
272 16-05-2009 14:38:47 17.4 C 5.48 g/m*3 17.4 C 0 km/h
273 16-05-2009 14:50:47 17.4 C 5.48 g/m*3 17.4 C 0 km/h
274 16-05-2009 15:02:46 17.8 C 5.77 g/m*3 17.8 C 0 km/h
275 16-05-2009 15:14:46 18.2 C 5.75 g/m*3 18.2 C 0 km/h
Sensor: Nr:Datum:Temp:Abs-Feuchte:Windchill:Wind:
Aussen-T/F 276 16-05-2009 15:26:46 17.6 C 5.55 g/m*3 17.6 C 0 km/h
277 16-05-2009 15:38:47 17.8 C 5.77 g/m*3 17.8 C 0 km/h
278 16-05-2009 15:50:46 17.6 C 6 g/m*3 17.6 C 0 km/h
279 16-05-2009 16:02:46 17.4 C 5.93 g/m*3 17.4 C 0 km/h
280 16-05-2009 16:14:46 17.7 C 6.04 g/m*3 17.7 C 0 km/h
281 16-05-2009 16:26:46 17.7 C 6.04 g/m*3 17.7 C 0 km/h
282 16-05-2009 16:38:46 19.1 C 5.9 g/m*3 19.1 C 0 km/h
283 16-05-2009 16:50:45 19 C 5.7 g/m*3 19 C 0 km/h
284 16-05-2009 17:02:46 19.1 C 6.07 g/m*3 19.1 C 0 km/h
285 16-05-2009 17:14:45 18.7 C 5.92 g/m*3 18.7 C 0 km/h
286 16-05-2009 17:26:45 18.2 C 5.91 g/m*3 18.2 C 0 km/h
287 16-05-2009 17:38:45 18.5 C 6.01 g/m*3 18.5 C 0 km/h
288 16-05-2009 17:50:45 18.2 C 6.06 g/m*3 18.2 C 0 km/h
289 16-05-2009 18:02:45 20.4 C 5.84 g/m*3 20.4 C 0 km/h
290 16-05-2009 18:14:45 20.7 C 5.76 g/m*3 20.7 C 0 km/h
291 16-05-2009 18:26:45 20.9 C 5.83 g/m*3 20.9 C 0 km/h
292 16-05-2009 18:38:48 21 C 5.68 g/m*3 21 C 0 km/h
293 16-05-2009 18:50:44 20.7 C 6.12 g/m*3 20.7 C 0 km/h
294 16-05-2009 19:02:44 21.6 C 6.07 g/m*3 21.6 C 0 km/h
295 16-05-2009 19:14:44 20.8 C 6.16 g/m*3 20.8 C 0 km/h
296 16-05-2009 19:26:44 20.7 C 5.94 g/m*3 20.7 C 0 km/h
297 16-05-2009 19:38:44 20.2 C 6.29 g/m*3 20.2 C 0 km/h
298 16-05-2009 19:50:43 19.3 C 7.13 g/m*3 19.3 C 0 km/h
299 16-05-2009 20:02:44 18.7 C 7.2 g/m*3 18.7 C 0 km/h
300 16-05-2009 20:14:44 17.7 C 7.69 g/m*3 17.7 C 0 km/h
Sensor: Nr:Datum:Temp:Abs-Feuchte:Windchill:Wind:
Aussen-T/F 301 16-05-2009 20:26:44 17.3 C 7.96 g/m*3 17.3 C 0 km/h
302 16-05-2009 20:38:43 16.7 C 7.82 g/m*3 16.7 C 0 km/h
303 16-05-2009 20:50:44 16.1 C 7.54 g/m*3 16.1 C 0 km/h
304 16-05-2009 21:02:43 15.6 C 7.71 g/m*3 15.6 C 0 km/h
305 16-05-2009 21:14:43 15.2 C 7.4 g/m*3 15.2 C 0 km/h
306 16-05-2009 21:26:43 14.4 C 7.54 g/m*3 14.4 C 0 km/h
307 16-05-2009 21:38:42 14.1 C 7.52 g/m*3 14.1 C 0 km/h
308 16-05-2009 21:50:43 13.5 C 7.49 g/m*3 13.5 C 0 km/h
309 16-05-2009 22:02:43 13.3 C 7.51 g/m*3 13.3 C 0 km/h
310 16-05-2009 22:14:42 13.3 C 7.51 g/m*3 13.3 C 0 km/h
311 16-05-2009 22:26:42 13.2 C 7.81 g/m*3 13.2 C 0 km/h
312 16-05-2009 22:38:43 13.1 C 7.76 g/m*3 13.1 C 0 km/h
313 16-05-2009 22:50:42 13.1 C 7.65 g/m*3 13.1 C 0 km/h
314 16-05-2009 23:02:42 13.1 C 7.65 g/m*3 13.1 C 0 km/h
315 16-05-2009 23:14:41 13.2 C 7.81 g/m*3 13.2 C 0 km/h
316 16-05-2009 23:26:41 13.5 C 7.49 g/m*3 13.5 C 0 km/h
317 16-05-2009 23:38:42 13.8 C 7.39 g/m*3 13.8 C 0 km/h
318 16-05-2009 23:50:41 14 C 7.12 g/m*3 14 C 0 km/h
319 17-05-2009 00:02:41 14 C 7 g/m*3 14 C 0 km/h
320 17-05-2009 00:14:41 13.9 C 7.19 g/m*3 13.9 C 0 km/h
321 17-05-2009 00:26:41 13.9 C 7.31 g/m*3 13.9 C 0 km/h
322 17-05-2009 00:38:41 13.9 C 7.31 g/m*3 13.9 C 0 km/h
323 17-05-2009 00:50:41 13.6 C 7.41 g/m*3 13.6 C 0 km/h
324 17-05-2009 01:02:41 13.4 C 7.32 g/m*3 13.4 C 0 km/h
325 17-05-2009 01:14:40 13.5 C 7.37 g/m*3 13.5 C 0 km/h
Sensor: Nr:Datum:Temp:Abs-Feuchte:Windchill:Wind:
Aussen-T/F 326 17-05-2009 01:26:40 13.7 C 7.22 g/m*3 13.7 C 0 km/h
327 17-05-2009 01:38:41 13.6 C 7.3 g/m*3 13.6 C 0 km/h
328 17-05-2009 01:50:40 13.4 C 7.21 g/m*3 13.4 C 0 km/h
329 17-05-2009 02:02:40 13.6 C 7.3 g/m*3 13.6 C 0 km/h
330 17-05-2009 02:14:40 13.5 C 7.37 g/m*3 13.5 C 0 km/h
331 17-05-2009 02:26:40 13.2 C 7.35 g/m*3 13.2 C 0 km/h
332 17-05-2009 02:38:40 13.1 C 7.42 g/m*3 13.1 C 0 km/h
333 17-05-2009 02:51:01 12.8 C 7.5 g/m*3 12.8 C 0 km/h
334 17-05-2009 03:03:01 12.6 C 7.41 g/m*3 12.6 C 0 km/h
335 17-05-2009 03:15:01 12.1 C 7.4 g/m*3 12.1 C 0 km/h
336 17-05-2009 03:27:02 11.8 C 7.37 g/m*3 11.8 C 0 km/h
337 17-05-2009 03:39:01 11.6 C 7.48 g/m*3 11.6 C 0 km/h
338 17-05-2009 03:51:01 11.5 C 7.54 g/m*3 11.5 C 0 km/h
339 17-05-2009 04:03:01 11.6 C 7.48 g/m*3 11.6 C 0 km/h
340 17-05-2009 04:15:02 11.5 C 7.54 g/m*3 11.5 C 0 km/h
341 17-05-2009 04:27:02 12.1 C 7.18 g/m*3 12.1 C 0 km/h
342 17-05-2009 04:39:01 12.2 C 7.12 g/m*3 12.2 C 0 km/h
343 17-05-2009 04:51:01 11.9 C 7.31 g/m*3 11.9 C 0 km/h
344 17-05-2009 05:03:01 11.7 C 7.43 g/m*3 11.7 C 0 km/h
345 17-05-2009 05:15:01 11.3 C 7.34 g/m*3 11.3 C 0 km/h
346 17-05-2009 05:27:01 11 C 7.41 g/m*3 11 C 0 km/h
347 17-05-2009 05:39:01 10.8 C 7.41 g/m*3 10.8 C 0 km/h
348 17-05-2009 05:51:02 10.7 C 7.46 g/m*3 10.7 C 0 km/h
349 17-05-2009 06:03:01 10.7 C 7.46 g/m*3 10.7 C 0 km/h
350 17-05-2009 06:15:02 10.6 C 7.52 g/m*3 10.6 C 0 km/h
Sensor: Nr:Datum:Temp:Abs-Feuchte:Windchill:Wind:
Aussen-T/F 351 17-05-2009 06:27:02 10.5 C 7.57 g/m*3 10.5 C 0 km/h
352 17-05-2009 06:39:01 10.8 C 7.71 g/m*3 10.8 C 0 km/h
353 17-05-2009 06:51:02 11.1 C 7.76 g/m*3 11.1 C 0 km/h
354 17-05-2009 07:03:01 11.4 C 7.8 g/m*3 11.4 C 0 km/h
355 17-05-2009 07:15:01 11.9 C 8.05 g/m*3 11.9 C 0 km/h
356 17-05-2009 07:27:01 12.1 C 7.94 g/m*3 12.1 C 0 km/h
357 17-05-2009 07:39:02 12.1 C 7.72 g/m*3 12.1 C 0 km/h
358 17-05-2009 07:51:02 12.1 C 7.61 g/m*3 12.1 C 0 km/h
359 17-05-2009 08:03:01 11.7 C 7.95 g/m*3 11.7 C 0 km/h
360 17-05-2009 08:15:02 11.4 C 8.11 g/m*3 11.4 C 0 km/h
361 17-05-2009 08:27:02 11.9 C 8.68 g/m*3 11.9 C 0 km/h
362 17-05-2009 08:39:01 12.1 C 8.69 g/m*3 12.1 C 0 km/h
363 17-05-2009 08:51:02 12.4 C 8.96 g/m*3 12.4 C 0 km/h
364 17-05-2009 09:03:01 12.8 C 9.07 g/m*3 12.8 C 0 km/h
365 17-05-2009 09:15:01 13.3 C 9.13 g/m*3 13.3 C 0 km/h
366 17-05-2009 09:27:01 13.8 C 9.17 g/m*3 13.8 C 0 km/h
367 17-05-2009 09:39:01 14.4 C 8.53 g/m*3 14.4 C 0 km/h
368 17-05-2009 09:51:01 15.2 C 8.7 g/m*3 15.2 C 0 km/h
369 17-05-2009 10:03:02 15.7 C 8.43 g/m*3 15.7 C 0 km/h
370 17-05-2009 10:15:01 15.3 C 8.1 g/m*3 15.3 C 0 km/h
371 17-05-2009 10:27:01 15.4 C 7.88 g/m*3 15.4 C 0 km/h
372 17-05-2009 10:39:02 16.3 C 7.91 g/m*3 16.3 C 0 km/h
373 17-05-2009 10:51:01 17.5 C 8.05 g/m*3 17.5 C 0 km/h
374 17-05-2009 11:03:02 17.9 C 8.24 g/m*3 17.9 C 0 km/h
375 17-05-2009 11:15:01 18.5 C 8.23 g/m*3 18.5 C 0 km/h
Sensor: Nr:Datum:Temp:Abs-Feuchte:Windchill:Wind:
Aussen-T/F 376 17-05-2009 11:27:01 18.6 C 7.8 g/m*3 18.6 C 0 km/h
377 17-05-2009 11:39:01 20 C 8.64 g/m*3 20 C 0 km/h
378 17-05-2009 11:51:01 21.2 C 8.52 g/m*3 21.2 C 0 km/h
379 17-05-2009 12:03:01 22.3 C 8.29 g/m*3 22.3 C 0 km/h
380 17-05-2009 12:15:02 21.9 C 7.72 g/m*3 21.9 C 0 km/h
381 17-05-2009 12:27:02 21.3 C 8.39 g/m*3 21.3 C 0 km/h
382 17-05-2009 12:39:01 20.4 C 8.49 g/m*3 20.4 C 0 km/h
383 17-05-2009 12:51:02 21.3 C 8.39 g/m*3 21.3 C 0 km/h
384 17-05-2009 13:03:01 22 C 8.35 g/m*3 22 C 0 km/h
385 17-05-2009 13:15:02 22.7 C 8.28 g/m*3 22.7 C 0 km/h
386 17-05-2009 13:27:02 22.2 C 7.85 g/m*3 22.2 C 0 km/h
387 17-05-2009 13:39:01 23.3 C 7.95 g/m*3 23.3 C 0 km/h
388 17-05-2009 13:51:01 22.8 C 7.72 g/m*3 22.8 C 0 km/h
389 17-05-2009 14:03:01 22.4 C 7.94 g/m*3 22.4 C 0 km/h
390 17-05-2009 14:15:01 22 C 7.76 g/m*3 22 C 0 km/h
391 17-05-2009 14:27:01 21.3 C 7.46 g/m*3 21.3 C 0 km/h
392 17-05-2009 14:39:02 21.2 C 7.6 g/m*3 21.2 C 0 km/h
393 17-05-2009 14:51:01 21.4 C 7.69 g/m*3 21.4 C 0 km/h
394 17-05-2009 15:03:02 21.9 C 7.72 g/m*3 21.9 C 0 km/h
395 17-05-2009 15:15:01 22.8 C 7.92 g/m*3 22.8 C 0 km/h
396 17-05-2009 15:27:01 23 C 7.6 g/m*3 23 C 0 km/h
397 17-05-2009 15:39:01 23.4 C 7.78 g/m*3 23.4 C 0 km/h
398 17-05-2009 15:51:01 23.3 C 7.32 g/m*3 23.3 C 0 km/h
399 17-05-2009 16:03:01 23.5 C 6.98 g/m*3 23.5 C 0 km/h
400 17-05-2009 16:15:01 23.4 C 6.73 g/m*3 23.4 C 0 km/h
Sensor: Nr:Datum:Temp:Abs-Feuchte:Windchill:Wind:
Aussen-T/F 401 17-05-2009 16:27:01 23.9 C 6.92 g/m*3 23.9 C 0 km/h
402 17-05-2009 16:39:01 23.5 C 6.56 g/m*3 23.5 C 0 km/h
403 17-05-2009 16:51:01 24.2 C 5.94 g/m*3 24.2 C 0 km/h
404 17-05-2009 17:03:01 24.1 C 6.13 g/m*3 24.1 C 0 km/h
405 17-05-2009 17:15:02 24.1 C 6.13 g/m*3 24.1 C 0 km/h
406 17-05-2009 17:27:02 24.5 C 6.27 g/m*3 24.5 C 0 km/h
407 17-05-2009 17:39:01 24 C 6.53 g/m*3 24 C 0 km/h
408 17-05-2009 17:51:02 23.3 C 6.48 g/m*3 23.3 C 0 km/h
409 17-05-2009 18:03:01 22.9 C 6.54 g/m*3 22.9 C 0 km/h
410 17-05-2009 18:15:01 22.1 C 6.64 g/m*3 22.1 C 0 km/h
411 17-05-2009 18:27:02 21 C 6.41 g/m*3 21 C 0 km/h
412 17-05-2009 18:39:01 20.9 C 6.74 g/m*3 20.9 C 0 km/h
413 17-05-2009 18:51:01 20.4 C 7.25 g/m*3 20.4 C 0 km/h
414 17-05-2009 19:03:01 20.5 C 7.12 g/m*3 20.5 C 0 km/h
415 17-05-2009 19:15:01 20.9 C 7.29 g/m*3 20.9 C 0 km/h
416 17-05-2009 19:27:01 20.7 C 7.56 g/m*3 20.7 C 0 km/h
417 17-05-2009 19:39:02 20.4 C 7.43 g/m*3 20.4 C 0 km/h
418 17-05-2009 19:51:01 20.1 C 7.3 g/m*3 20.1 C 0 km/h
419 17-05-2009 20:03:02 19.7 C 7.64 g/m*3 19.7 C 0 km/h
420 17-05-2009 20:15:01 19.5 C 7.72 g/m*3 19.5 C 0 km/h
421 17-05-2009 20:27:01 19.3 C 7.96 g/m*3 19.3 C 0 km/h
422 17-05-2009 20:39:01 18.9 C 8.59 g/m*3 18.9 C 0 km/h
423 17-05-2009 20:51:01 19 C 8.15 g/m*3 19 C 0 km/h
424 17-05-2009 21:03:01 18.9 C 8.1 g/m*3 18.9 C 0 km/h
425 17-05-2009 21:15:01 18.5 C 7.59 g/m*3 18.5 C 0 km/h
Sensor: Nr:Datum:Temp:Abs-Feuchte:Windchill:Wind:
Aussen-T/F 426 17-05-2009 21:27:01 18.3 C 7.66 g/m*3 18.3 C 0 km/h
427 17-05-2009 21:39:02 18 C 7.68 g/m*3 18 C 0 km/h
428 17-05-2009 21:51:01 17.7 C 7.69 g/m*3 17.7 C 0 km/h
429 17-05-2009 22:03:02 17.5 C 7.45 g/m*3 17.5 C 0 km/h
430 17-05-2009 22:15:01 17.3 C 7.37 g/m*3 17.3 C 0 km/h
431 17-05-2009 22:27:01 17.2 C 7.47 g/m*3 17.2 C 0 km/h
432 17-05-2009 22:39:01 16.9 C 7.19 g/m*3 16.9 C 0 km/h
433 17-05-2009 22:51:01 16.8 C 7.15 g/m*3 16.8 C 0 km/h
434 17-05-2009 23:03:01 16.6 C 7.35 g/m*3 16.6 C 0 km/h
435 17-05-2009 23:15:01 16.3 C 7.08 g/m*3 16.3 C 0 km/h
436 17-05-2009 23:27:01 16.2 C 6.9 g/m*3 16.2 C 0 km/h
437 17-05-2009 23:39:01 16.2 C 6.48 g/m*3 16.2 C 0 km/h
438 17-05-2009 23:51:02 16.2 C 6.48 g/m*3 16.2 C 0 km/h
439 18-05-2009 00:03:01 16.1 C 6.58 g/m*3 16.1 C 0 km/h
440 18-05-2009 00:15:01 15.8 C 6.87 g/m*3 15.8 C 0 km/h
441 18-05-2009 00:27:01 15.6 C 7.05 g/m*3 15.6 C 0 km/h
442 18-05-2009 00:39:01 15.4 C 7.09 g/m*3 15.4 C 0 km/h
443 18-05-2009 00:51:01 15.4 C 7.23 g/m*3 15.4 C 0 km/h
444 18-05-2009 01:03:01 15.1 C 7.22 g/m*3 15.1 C 0 km/h
445 18-05-2009 01:15:02 14.9 C 7.39 g/m*3 14.9 C 0 km/h
446 18-05-2009 01:27:02 14.7 C 7.43 g/m*3 14.7 C 0 km/h
447 18-05-2009 01:39:01 14.7 C 7.3 g/m*3 14.7 C 0 km/h
448 18-05-2009 01:51:02 14.5 C 7.21 g/m*3 14.5 C 0 km/h
449 18-05-2009 02:03:01 14.5 C 7.34 g/m*3 14.5 C 0 km/h
450 18-05-2009 02:15:02 14.3 C 7.25 g/m*3 14.3 C 0 km/h
Sensor: Nr:Datum:Temp:Abs-Feuchte:Windchill:Wind:
Aussen-T/F 451 18-05-2009 02:27:02 14.2 C 7.33 g/m*3 14.2 C 0 km/h
452 18-05-2009 02:39:01 14 C 7.36 g/m*3 14 C 0 km/h
453 18-05-2009 02:51:30 13.7 C 7.34 g/m*3 13.7 C 0 km/h
454 18-05-2009 03:03:30 13.6 C 7.3 g/m*3 13.6 C 0 km/h
455 18-05-2009 03:15:29 13.3 C 7.28 g/m*3 13.3 C 0 km/h
456 18-05-2009 03:27:29 13 C 7.26 g/m*3 13 C 0 km/h
457 18-05-2009 03:39:29 12.6 C 7.3 g/m*3 12.6 C 0 km/h
458 18-05-2009 03:51:29 12.8 C 7.5 g/m*3 12.8 C 0 km/h
459 18-05-2009 04:03:28 13 C 7.6 g/m*3 13 C 0 km/h
460 18-05-2009 04:15:29 13.1 C 7.65 g/m*3 13.1 C 0 km/h
461 18-05-2009 04:27:29 12.8 C 7.62 g/m*3 12.8 C 0 km/h
462 18-05-2009 04:39:28 12.4 C 7.43 g/m*3 12.4 C 0 km/h
463 18-05-2009 04:51:28 12 C 7.46 g/m*3 12 C 0 km/h
464 18-05-2009 05:03:28 11.6 C 7.38 g/m*3 11.6 C 0 km/h
465 18-05-2009 05:15:28 11.7 C 7.64 g/m*3 11.7 C 0 km/h
466 18-05-2009 05:27:28 11.2 C 7.4 g/m*3 11.2 C 0 km/h
467 18-05-2009 05:39:28 11 C 7.41 g/m*3 11 C 0 km/h
468 18-05-2009 05:51:28 10.9 C 7.56 g/m*3 10.9 C 0 km/h
469 18-05-2009 06:03:28 10.8 C 7.61 g/m*3 10.8 C 0 km/h
470 18-05-2009 06:15:27 10.7 C 7.66 g/m*3 10.7 C 0 km/h
471 18-05-2009 06:27:27 10.7 C 7.76 g/m*3 10.7 C 0 km/h
472 18-05-2009 06:39:27 10.7 C 7.86 g/m*3 10.7 C 0 km/h
473 18-05-2009 06:51:27 10.8 C 7.91 g/m*3 10.8 C 0 km/h
474 18-05-2009 07:03:27 11 C 7.91 g/m*3 11 C 0 km/h
475 18-05-2009 07:15:27 11.3 C 8.06 g/m*3 11.3 C 0 km/h
Sensor: Nr:Datum:Temp:Abs-Feuchte:Windchill:Wind:
Aussen-T/F 476 18-05-2009 07:27:27 11.4 C 8.11 g/m*3 11.4 C 0 km/h
477 18-05-2009 07:39:27 11.6 C 8.21 g/m*3 11.6 C 0 km/h
478 18-05-2009 07:51:27 11.9 C 8.26 g/m*3 11.9 C 0 km/h
479 18-05-2009 08:03:26 12.1 C 8.26 g/m*3 12.1 C 0 km/h
480 18-05-2009 08:15:26 12.4 C 8.3 g/m*3 12.4 C 0 km/h
481 18-05-2009 08:27:26 12.8 C 8.51 g/m*3 12.8 C 0 km/h
482 18-05-2009 08:39:26 13.2 C 8.38 g/m*3 13.2 C 0 km/h
483 18-05-2009 08:51:26 13.7 C 8.41 g/m*3 13.7 C 0 km/h
484 18-05-2009 09:03:25 14.8 C 8.11 g/m*3 14.8 C 0 km/h
485 18-05-2009 09:15:26 15.4 C 7.49 g/m*3 15.4 C 0 km/h
486 18-05-2009 09:27:26 15.2 C 7.53 g/m*3 15.2 C 0 km/h
487 18-05-2009 09:39:26 15.2 C 7.53 g/m*3 15.2 C 0 km/h
488 18-05-2009 09:51:25 15.9 C 7.58 g/m*3 15.9 C 0 km/h
489 18-05-2009 10:03:26 16.5 C 7.44 g/m*3 16.5 C 0 km/h
490 18-05-2009 10:15:25 16.7 C 7.25 g/m*3 16.7 C 0 km/h
491 18-05-2009 10:27:25 17.1 C 6.99 g/m*3 17.1 C 0 km/h
492 18-05-2009 10:39:25 16.5 C 7.02 g/m*3 16.5 C 0 km/h
493 18-05-2009 10:51:25 16.6 C 7.06 g/m*3 16.6 C 0 km/h
494 18-05-2009 11:03:25 17 C 6.95 g/m*3 17 C 0 km/h
495 18-05-2009 11:15:24 17.3 C 6.78 g/m*3 17.3 C 0 km/h
496 18-05-2009 11:27:24 18 C 6.45 g/m*3 18 C 0 km/h
497 18-05-2009 11:39:24 17.6 C 6.3 g/m*3 17.6 C 0 km/h
498 18-05-2009 11:51:24 18.4 C 6.29 g/m*3 18.4 C 0 km/h
499 18-05-2009 12:03:24 18.5 C 6.17 g/m*3 18.5 C 0 km/h
500 18-05-2009 12:15:24 18.7 C 6.24 g/m*3 18.7 C 0 km/h
Sensor: Nr:Datum:Temp:Abs-Feuchte:Windchill:Wind:
Aussen-T/F 501 18-05-2009 12:27:24 19.4 C 6.01 g/m*3 19.4 C 0 km/h
502 18-05-2009 12:39:24 19.3 C 5.47 g/m*3 19.3 C 0 km/h
503 18-05-2009 12:51:24 19.3 C 4.98 g/m*3 19.3 C 0 km/h
504 18-05-2009 13:03:23 19.2 C 5.11 g/m*3 19.2 C 0 km/h
505 18-05-2009 13:15:23 20.6 C 5.19 g/m*3 20.6 C 0 km/h
506 18-05-2009 13:27:23 20.8 C 3.98 g/m*3 20.8 C 0 km/h
507 18-05-2009 13:39:24 21.1 C 3.69 g/m*3 21.1 C 0 km/h
508 18-05-2009 13:51:23 21.1 C 3.69 g/m*3 21.1 C 0 km/h
509 18-05-2009 14:03:23 20.7 C 3.6 g/m*3 20.7 C 0 km/h
510 18-05-2009 14:15:23 20.6 C 3.58 g/m*3 20.6 C 0 km/h
511 18-05-2009 14:27:23 20.8 C 3.62 g/m*3 20.8 C 0 km/h
512 18-05-2009 14:39:23 20.9 C 3.64 g/m*3 20.9 C 0 km/h
513 18-05-2009 14:51:22 21.6 C 3.79 g/m*3 21.6 C 0 km/h
514 18-05-2009 15:03:23 22.5 C 3.99 g/m*3 22.5 C 0 km/h
515 18-05-2009 15:15:22 22.2 C 3.93 g/m*3 22.2 C 0 km/h
516 18-05-2009 15:27:22 21.2 C 3.89 g/m*3 21.2 C 0 km/h
517 18-05-2009 15:39:22 22.3 C 3.95 g/m*3 22.3 C 0 km/h
518 18-05-2009 15:51:21 22.6 C 4.02 g/m*3 22.6 C 0 km/h
519 18-05-2009 16:03:22 22 C 4.08 g/m*3 22 C 0 km/h
520 18-05-2009 16:15:22 21.8 C 4.22 g/m*3 21.8 C 0 km/h
521 18-05-2009 16:27:22 21.4 C 4.12 g/m*3 21.4 C 0 km/h
522 18-05-2009 16:39:21 22.6 C 4.02 g/m*3 22.6 C 0 km/h
523 18-05-2009 16:51:22 22 C 3.88 g/m*3 22 C 0 km/h
524 18-05-2009 17:03:21 21.8 C 4.22 g/m*3 21.8 C 0 km/h
525 18-05-2009 17:15:21 22.8 C 4.27 g/m*3 22.8 C 0 km/h
Sensor: Nr:Datum:Temp:Abs-Feuchte:Windchill:Wind:
Aussen-T/F 526 18-05-2009 17:27:21 22.8 C 4.06 g/m*3 22.8 C 0 km/h
527 18-05-2009 17:39:21 22.2 C 4.12 g/m*3 22.2 C 0 km/h
528 18-05-2009 17:51:21 23.1 C 4.13 g/m*3 23.1 C 0 km/h
529 18-05-2009 18:03:21 22.4 C 3.97 g/m*3 22.4 C 0 km/h
530 18-05-2009 18:15:20 22.8 C 4.27 g/m*3 22.8 C 0 km/h
531 18-05-2009 18:27:20 22.6 C 4.02 g/m*3 22.6 C 0 km/h
532 18-05-2009 18:39:21 23.6 C 4.25 g/m*3 23.6 C 0 km/h
533 18-05-2009 18:51:20 23.7 C 4.28 g/m*3 23.7 C 0 km/h
534 18-05-2009 19:03:20 23.4 C 4.21 g/m*3 23.4 C 0 km/h
535 18-05-2009 19:15:19 23.4 C 4.21 g/m*3 23.4 C 0 km/h
536 18-05-2009 19:27:19 23.3 C 4.18 g/m*3 23.3 C 0 km/h
537 18-05-2009 19:39:20 22.3 C 4.15 g/m*3 22.3 C 0 km/h
538 18-05-2009 19:51:19 22.1 C 4.68 g/m*3 22.1 C 0 km/h
539 18-05-2009 20:03:20 22.3 C 4.74 g/m*3 22.3 C 0 km/h
540 18-05-2009 20:15:19 21.8 C 4.99 g/m*3 21.8 C 0 km/h
541 18-05-2009 20:27:19 21.6 C 5.12 g/m*3 21.6 C 0 km/h
542 18-05-2009 20:39:19 20.4 C 4.78 g/m*3 20.4 C 0 km/h
543 18-05-2009 20:51:19 19.4 C 5.01 g/m*3 19.4 C 0 km/h
544 18-05-2009 21:03:19 18.5 C 5.06 g/m*3 18.5 C 0 km/h
545 18-05-2009 21:15:19 17.9 C 5.8 g/m*3 17.9 C 0 km/h
546 18-05-2009 21:27:19 17.3 C 5.3 g/m*3 17.3 C 0 km/h
547 18-05-2009 21:39:19 17 C 5.5 g/m*3 17 C 0 km/h
548 18-05-2009 21:51:18 16.7 C 5.4 g/m*3 16.7 C 0 km/h
549 18-05-2009 22:04:20 16.1 C 5.48 g/m*3 16.1 C 0 km/h
550 18-05-2009 22:16:20 15.9 C 5.82 g/m*3 15.9 C 0 km/h
Sensor: Nr:Datum:Temp:Abs-Feuchte:Windchill:Wind:
Aussen-T/F 551 18-05-2009 22:28:20 15.2 C 5.58 g/m*3 15.2 C 0 km/h
552 18-05-2009 22:40:20 14.8 C 5.83 g/m*3 14.8 C 0 km/h
553 18-05-2009 22:52:20 14.6 C 5.76 g/m*3 14.6 C 0 km/h
554 18-05-2009 23:04:20 14 C 5.91 g/m*3 14 C 0 km/h
555 18-05-2009 23:16:20 13.9 C 6.11 g/m*3 13.9 C 0 km/h
556 18-05-2009 23:28:20 13.6 C 6.12 g/m*3 13.6 C 0 km/h
557 18-05-2009 23:40:20 13.5 C 6.2 g/m*3 13.5 C 0 km/h
558 18-05-2009 23:52:20 12.9 C 6.76 g/m*3 12.9 C 0 km/h

Legende:
   Min
   Max


Maximal/Minimal-Werte vom 14.05.2009 - 18.05.2009

Sensor Min Max Avg
Temp
(Aussen-T/F)
8 °C
16-05-2009  06:02:52
25.4 °C
14-05-2009  16:11:38
15.79 °C
Abs-Feuchte
(Aussen-T/F)
3.58 g/m*3
18-05-2009  14:15:23
12.11 g/m*3
15-05-2009  08:11:41
7.88 g/m*3
Windchill
(Aussen-T/F)
8 C
16-05-2009  06:02:52
25.4 C
14-05-2009  16:11:38
15.76 C

Die Daten stammen von einer Davis Vantage Pro 2 Wetter-Station und werden unter Linux mit der Software wview2wettercgi und aufbereitet. Alle Angaben erfolgen ohne Gewähr für ihre Vollständigkeit oder Richtigkeit.
Kontakt: Rainer Krienke krienke@uni-koblenz.de . Meine Webseiten an der Uni Koblenz oder privat.
Version: $Revision: 0.78 $